Regional Weather Roundup
Issued by NWS

Home | Current Version | Previous Version | Graphics & Text | Print | Product List | Glossary On
Versions: 1 2 3 4 5 6 7 8 9 10 11 12 13 14 15 16 17 18 19 20 21 22 23 24 25 26 27 28 29 30 31 32 33 34 35 36 37 38 39 40 41 42 43 44 45 46 47 48 49 50
000
ASUS43 KIND 211609
RWRIN

WEATHER ROUNDUP FOR INDIANA
NATIONAL WEATHER SERVICE INDIANAPOLIS IN
1100 AM EST WED FEB 21 2018

NOTE: "FAIR" INDICATES FEW OR NO CLOUDS BELOW 12,000 FEET WITH NO
SIGNIFICANT WEATHER AND/OR OBSTRUCTIONS TO VISIBILITY.

* - STATION DOES NOT REPORT WEATHER SUCH AS PRECIPITATION OR FOG.

+ - STATION NOT QUALITY CONTROLLED BY THE NATIONAL WEATHER SERVICE.
    USE DATA WITH CAUTION...ESPECIALLY DEWPOINT AND RELATIVE
    HUMIDITY OBSERVATIONS.

INZ001>003-010>013-019-020-211700-
NORTHWEST INDIANA

CITY           SKY/WX    TMP DP  RH WIND       PRES   REMARKS
GARY /AIRPORT/ CLOUDY    30  25  80 N17       30.54R WCI  18
LA PORTE +     CLOUDY    30  27  88 N10       30.51R WCI  21
MICHIGAN CITY+ CLOUDY    30  28  93 N9        30.52R WCI  22
MONTICELLO +   CLOUDY    32  30  95 N13       30.48R WCI  22
RENSSELAER +   CLOUDY    32  27  80 N10G16    30.50R WCI  24
VALPARAISO     CLOUDY    31  26  82 N16       30.50R WCI  20

$$

LMZ046-743>745-211700-
SOUTHERN LAKE MICHIGAN

STATION/POSITION TIME  TEMP    WIND        PRES    WAVE
                       AIR SEA DIR/SP/G            HT
                 (UTC) (F)     (DEG/KT/KT) (MB)    (FT)
BURNS HARBOR     1540   29     360/ 16/ 19 1033.5R
MICHIGAN CITY    1540   29     350/ 19/ 20   N/A

$$

INZ004-005-014>016-021>024-211700-
NORTH CENTRAL INDIANA

CITY           SKY/WX    TMP DP  RH WIND       PRES   REMARKS
ELKHART        CLOUDY    30  28  93 N12       30.47R WCI  21
GOSHEN         CLOUDY    33  29  85 NW8       30.46R WCI  26
LOGANSPORT +   CLOUDY    34  30  86 N10       30.48R WCI  26
PERU/GRISSOM   CLOUDY    34  34 100 N12       30.46R WCI  26
ROCHESTER +    CLOUDY    34  32  93 N10       30.47R WCI  26
SOUTH BEND     CLOUDY    30  26  85 N16       30.49R WCI  19
WARSAW +       CLOUDY    32  30  93 N13       30.45R WCI  22

$$

INZ006>009-017-018-025>027-211700-
NORTHEAST INDIANA

CITY           SKY/WX    TMP DP  RH WIND       PRES   REMARKS
AUBURN +       CLOUDY    34  32  93 N8        30.44R WCI  27
FORT WAYNE     CLOUDY    36  33  89 NW10      30.45R WCI  28
HUNTINGTON +   CLOUDY    34  32  91 N6        30.45R WCI  29
KENDALLVILLE + CLOUDY    32  31  94 N10       30.44R WCI  24

$$

INZ028-029-035-036-043>045-051>053-211700-
WEST CENTRAL INDIANA

CITY           SKY/WX    TMP DP  RH WIND       PRES   REMARKS
CRAWFORDSVL +  CLOUDY    33  33 100 N9        30.39R WCI  25
GREENCASTLE +  CLOUDY    34  34 100 N6        30.46R WCI  29
LAFAYETTE      PTSUNNY   34  30  85 N13       30.48R WCI  25
TERRE HAUTE    LGT RAIN  37  35  92 N8        30.46R WCI  31

$$

INZ030>032-037>040-046>048-054>057-064-065-211700-
CENTRAL INDIANA

CITY           SKY/WX    TMP DP  RH WIND       PRES   REMARKS
ANDERSON       CLOUDY    37  36  93 N12       30.43R WCI  30
COLUMBUS       LGT RAIN  41  39  93 N16       30.42R
FISHERS *+     CLOUDY    36  36 100 N8        30.44  WCI  29
FRANKFORT +    CLOUDY    37  33  87 N9        30.47R WCI  30
GREENWOOD *+   CLOUDY   N/A N/A N/A N9        30.43R
INDIANAPOLIS   LGT RAIN  37  35  92 N8        30.45R WCI  31
-EAGLE CREEK   LGT RAIN  37  33  85 N10       30.43R WCI  30
KOKOMO +       CLOUDY    35  32  88 N10       30.46R WCI  27
MARION +       CLOUDY    33  33  97 N9        30.45R WCI  26
MT COMFORT *+  CLOUDY    36  36 100 N14       30.44R WCI  27
SHELBYVILLE    LGT RAIN  40  36  86 N13       30.42R WCI  32
ZIONSVILLE +   LGT RAIN  34  33  96 NE7       30.43F WCI  28

$$

INZ033-034-041-042-049-050-058-059-211700-
EAST CENTRAL INDIANA

CITY           SKY/WX    TMP DP  RH WIND       PRES   REMARKS
MUNCIE         LGT RAIN  38  35  89 N13       30.43R WCI  30
RICHMOND +     LGT RAIN  39  39 100 N13       30.40R WCI  32

$$

INZ060-061-067>069-081>083-085>088-211700-
SOUTHWEST INDIANA

CITY           SKY/WX    TMP DP  RH WIND       PRES   REMARKS
EVANSVILLE     LGT RAIN  39  37  92 N7        30.45R WCI  34
HUNTINGBURG +  LGT RAIN  40  38  93 N12       30.44R WCI  33
WASHINGTON +   LGT RAIN  39  37  94 N10       30.46R WCI  32

$$

INZ062-063-066-070>080-084-089>092-211700-
SOUTH CENTRAL AND SOUTHEAST INDIANA

CITY           SKY/WX    TMP DP  RH WIND       PRES   REMARKS
BATESVILLE +   MOSUNNY   43  43 100 MISG      30.40R
BEDFORD +      LGT RAIN  41  37  87 N8        30.41R
BLOOMINGTON    LGT RAIN  40  38  93 N10       30.43R WCI  33
FRENCH LICK *+ CLOUDY    41 N/A N/A N6        30.42R
MADISON *+     CLOUDY    46  45  93 NW10      30.41R
NORTH VERNON + LGT RAIN  41  39  93 N13       30.41R
SEYMOUR +      LGT RAIN  45  41  87 N10       30.43R

$$





USA.gov is the U.S. government's official web portal to all federal, state and local government web resources and services.